This demonstration page uses our WeatherBlox Daily Observations layout. Learn more.

Left ArrowRight Arrow

36.17497, -115.13722

Hourly Observations for September 16, 2016

Temp ( °F °C ) Dew Point ( °F °C ) Humidity (%) Winds ( mph kmh ) Pressure ( in mb ) Visibility ( mi km ) Precip ( " mm )
12:53 am 00:53 Clear 73 22.8 28 -2.2 19 19 WNW 6 9 29.91 1013 10 16.0934 0 0
1:53 am 01:53 Clear 71 21.7 25 -3.9 18 18 Calm 29.92 1013 10 16.0934 0 0
2:53 am 02:53 Clear 72 22.2 26 -3.3 18 18 W 6 9 29.92 1013 10 16.0934 0 0
3:53 am 03:53 Clear 70 21.1 28 -2.2 21 21 W 5 7 29.93 1014 10 16.0934 0 0
4:53 am 04:53 Clear 68 20 29 -1.7 23 23 Calm 29.94 1014 10 16.0934 0 0
5:53 am 05:53 Clear 67 19.4 30 -1.1 25 25 Calm 29.96 1015 10 16.0934 0 0
6:53 am 06:53 Sunny 68 20 28 -2.2 22 22 Calm 29.98 1015 10 16.0934 0 0
7:53 am 07:53 Sunny 73 22.8 26 -3.3 17 17 NNW 6 9 29.99 1016 10 16.0934 0 0
8:53 am 08:53 Sunny 76 24.4 28 -2.2 17 17 NW 5 7 30 1016 10 16.0934 0 0
9:53 am 09:53 Sunny 80 26.7 27 -2.8 14 14 VRB 3 6 30 1016 10 16.0934 0 0
10:53 am 10:53 Sunny 82 27.8 27 -2.8 13 13 VRB 3 6 29.99 1016 10 16.0934 0 0
11:53 am 11:53 Sunny 85 29.4 28 -2.2 13 13 VRB 3 6 29.97 1015 10 16.0934 0 0
12:53 pm 12:53 Sunny 87 30.6 28 -2.2 12 12 Calm 29.96 1014 10 16.0934 0 0
1:53 pm 13:53 Sunny 89 31.7 28 -2.2 11 11 VRB 3 6 29.93 1014 10 16.0934 0 0
2:53 pm 14:53 Sunny 89 31.7 26 -3.3 10 10 VRB 3 6 29.91 1013 10 16.0934 0 0
3:53 pm 15:53 Sunny 90 32.2 24 -4.4 9 9 E 6 9 29.89 1012 10 16.0934 0 0
4:53 pm 16:53 Sunny 90 32.2 24 -4.4 9 9 VRB 5 7 29.88 1012 10 16.0934 0 0
5:53 pm 17:53 Sunny 89 31.7 24 -4.4 9 9 ESE 3 6 29.88 1012 10 16.0934 0 0
6:53 pm 18:53 Clear 89 31.7 24 -4.4 9 9 Calm 29.88 1012 10 16.0934 0 0
7:53 pm 19:53 Clear 87 30.6 27 -2.8 11 11 Calm 29.9 1013 10 16.0934 0 0
8:53 pm 20:53 Clear 82 27.8 29 -1.7 14 14 NE 6 9 29.92 1013 10 16.0934 0 0
9:53 pm 21:53 Clear 79 26.1 33 0.6 19 19 NW 7 11 29.92 1013 10 16.0934 0 0
10:53 pm 22:53 Clear 76 24.4 28 -2.2 17 17 N 5 7 29.92 1013 10 16.0934 0 0
11:53 pm 23:53 Clear 75 23.9 27 -2.8 17 17 NW 6 9 29.93 1014 10 16.0934 0 0

Powered by AerisWeather